Home   Weather   Vellore   Past weeks

Flag for India Past Weather in Vellore, Tamil Nadu, India — Yesterday and Last 2 Weeks

Now
90 °F

Partly sunny.


Feels Like: 105 °F
Forecast: 73 / 90 °F
Wind: 9 mph from Southwest

Location: Madras / Minambakkam

Current Time: Sep 29, 2016 at 12:24:40 PM

Latest Report: Sep 29, 2016 at 12:00 PM


Visibility: 4 mi

Pressure: 29.65 "Hg

Humidity: 71%

Dew Point: 79 °F

Location of VelloreLocation

Past Weather in Vellore — Graph

°F

Vellore Temperature Yesterday

Maximum temperature yesterday: 90 °F (at 3:00 PM)
Minimum temperature yesterday: 73 °F (at 11:30 PM)
Average temperature yesterday: 83 °F

High & Low Weather Summary for the Past Weeks

 TemperatureHumidityPressure
High99 °F (Sep 19, 2:30 PM)100% (Sep 16, 1:30 AM)29.77 "Hg (Sep 16, 1:30 AM)
Low73 °F (Sep 28, 11:30 PM)44% (Sep 18, 3:30 PM)29.50 "Hg (Sep 24, 2:30 PM)
Average85 °F74%29.65 "Hg
* Reported Sep 14 11:30 AM — Sep 29 11:30 AM, Vellore, Weather by CustomWeather, © 2016

Note: Actual official high and low records may vary slightly from our data, if they occured in-between our weather recording intervals... More about our weather records

Advertising

Vellore Weather History for the Previous 24 Hours

Scroll right to see more
 ConditionsComfort  
Time TempWeatherWind HumidityBarometerVisibility
11:30 AM
Thu, Sep 29
88 °FPartly sunny.8 mph75%29.68 "Hg4 mi
11:00 AM86 °FPartly sunny.9 mph75%29.68 "Hg4 mi
10:30 AM84 °FPartly sunny.8 mph84%29.68 "Hg4 mi
10:00 AM84 °FPartly sunny.9 mph79%29.68 "Hg4 mi
9:30 AM82 °FBroken clouds.9 mph84%29.71 "Hg4 mi
9:00 AM81 °FFog.8 mph89%29.68 "Hg3 mi
8:30 AM79 °FFog.5 mph94%29.68 "Hg3 mi
8:00 AM79 °FFog.7 mph94%29.68 "Hg3 mi
7:30 AM77 °FFog.5 mph94%29.68 "Hg3 mi
7:00 AM77 °FFog.No wind94%29.65 "Hg3 mi
6:30 AM77 °FFog.3 mph94%29.68 "Hg3 mi
6:00 AM75 °FLight rain. Mostly cloudy.7 mph100%29.65 "Hg3 mi
5:30 AM75 °FThunderstorms. Mostly cloudy.6 mph94%29.65 "Hg3 mi
5:00 AM75 °FThunderstorms. Mostly cloudy.5 mph94%29.62 "Hg3 mi
4:30 AM75 °FThunderstorms. Mostly cloudy.5 mph100%29.62 "Hg3 mi
4:00 AM75 °FThunderstorms. Mostly cloudy.8 mph94%29.62 "Hg3 mi
3:30 AM75 °FThunderstorms. Mostly cloudy.9 mph94%29.65 "Hg2 mi
3:00 AM75 °FThunderstorms. Mostly cloudy.8 mph100%29.65 "Hg2 mi
2:30 AM75 °FThunderstorms. Mostly cloudy.3 mph94%29.62 "Hg2 mi
2:00 AM75 °FThunderstorms. Mostly cloudy.5 mph94%29.62 "Hg2 mi
1:30 AM75 °FThunderstorms. Mostly cloudy.7 mph94%29.65 "Hg2 mi
1:00 AM75 °FThunderstorms. Mostly cloudy.6 mph94%29.68 "Hg2 mi
12:30 AM75 °FThunderstorms. Mostly cloudy.3 mph94%29.68 "Hg2 mi
12:00 AM73 °FThunderstorms. Mostly cloudy.8 mph100%29.71 "Hg2 mi
11:30 PM
Wed, Sep 28
73 °FThunderstorms. Mostly cloudy.8 mph100%29.71 "Hg2 mi
11:00 PM75 °FThunderstorms. Mostly cloudy.12 mph94%29.74 "Hg1 mi
10:30 PM77 °FStrong thunderstorms. Mostly cloudy.12 mph89%29.71 "Hg1 mi
10:00 PM84 °FLight rain. Partly cloudy.7 mph89%29.68 "Hg2 mi
9:30 PM84 °FFog.No wind89%29.65 "Hg3 mi
9:00 PM84 °FFog.No wind89%29.65 "Hg3 mi
8:30 PM84 °FFog.No wind89%29.65 "Hg3 mi
8:00 PM84 °FFog.No wind89%29.62 "Hg3 mi
7:30 PM86 °FFog.No wind79%29.62 "Hg3 mi
7:00 PM86 °FFog.No wind79%29.62 "Hg3 mi
6:30 PM86 °FFog.3 mph79%29.59 "Hg3 mi
6:00 PM86 °FBroken clouds.6 mph79%29.59 "Hg3 mi
5:30 PM88 °FBroken clouds.6 mph75%29.56 "Hg3 mi
5:00 PM88 °FBroken clouds.8 mph75%29.56 "Hg3 mi
4:30 PM88 °FBroken clouds.7 mph75%29.59 "Hg3 mi
4:00 PM88 °FBroken clouds.5 mph75%29.59 "Hg3 mi
3:30 PM90 °FBroken clouds.6 mph71%29.59 "Hg3 mi
3:00 PM90 °FBroken clouds.7 mph71%29.59 "Hg3 mi
2:30 PM88 °FBroken clouds.8 mph70%29.62 "Hg3 mi
2:00 PM88 °FBroken clouds.8 mph70%29.62 "Hg3 mi
1:30 PM88 °FBroken clouds.9 mph70%29.62 "Hg3 mi
1:00 PM86 °FBroken clouds.9 mph75%29.65 "Hg3 mi
12:30 PM86 °FBroken clouds.7 mph70%29.68 "Hg3 mi
12:00 PM84 °FBroken clouds.7 mph79%29.68 "Hg3 mi
Weather by CustomWeather, © 2016

See weather overviewHow to use our weather pages